User: anonymous   Login
Location: Eyeline Observatory
(43.2182°N, 78.8632°W)
Time: 05:08:30
(UTC-05:00)
Language:

ISS - Orbit

View from above orbital plane
View from above orbital plane
View from above satellite
View from above satellite

Ground track
Ground track

The orbit data is extracted from the following two-line orbital elements,

1 25544U 98067A   18050.27217451  .00016717  00000-0  10270-3 0  9033
2 25544  51.6390 246.5536 0002974 110.4349 249.7123 15.54100325 20175
Epoch (UTC): 19 February 2018 06:31:55
Eccentricity: 0.0002974
inclination: 51.6390°
perigee height: 403 km
apogee height: 407 km
right ascension of ascending node: 246.5536°
argument of perigee: 110.4349°
revolutions per day: 15.54100325
mean anomaly at epoch: 249.7123°
orbit number at epoch: 2017

The dashed part of the orbit path shows where the satellite is in the earth's shadow,  

DLR